Location: Daouli
(14.8671°N, 3.2030°W)
Time: 02:13:04
(UTC+00:00)

Cosmos 44 Rocket - Pass Details

Date: 29 October 2020
Orbit: 642 x 748 km, 65.1° (Epoch: 02 December)

Event Time Altitude Azimuth Distance (km) Brightness Sun altitude
Rises 18:03:12 0° 211° (SSW) 2,939 7.3 -5.1°
Reaches altitude 10° 18:05:30 10° 216° (SW) 2,037 6.5 -5.6°
Maximum altitude 18:10:00 54° 293° (WNW) 789 4.0 -6.7°
Drops below altitude 10° 18:14:37 10° 12° (NNE) 2,084 5.5 -7.8°
Sets 18:17:01 0° 16° (NNE) 3,015 6.3 -8.3°
